Weather History for Santa Monica, CA

Change the Weather History Date:

Saturday, December 1, 2012

  Actual Average Record
Temperature  
Mean Temperature 62 °F -  
Max Temperature 64 °F 68 °F 88 °F (1959)
Min Temperature 60 °F 49 °F 39 °F (1948)
Degree Days  
Heating Degree Days 3    
Growing Degree Days 12 (Base 50)    
Moisture  
Dew Point 59 °F    
Average Humidity 89    
Maximum Humidity 96    
Minimum Humidity 81    
Precipitation  
Precipitation 0.09 in - - ()
Sea Level Pressure  
Sea Level Pressure 30.13 in    
Wind  
Wind Speed 2 mph (SW)    
Max Wind Speed 9 mph    
Max Gust Speed -    
Visibility 8 miles    
Events Rain    
Averages and records for this station are not official NWS values.
T = Trace of Precipitation, MM = Missing Value Source: NWS Daily Summary

Daily Weather History Graph

Daily Weather History Graph

Search for Another Location

Airport:

Trip Planner

Search our weather history database for the weather conditions in past years. The results will help you decide how hot, cold, wet, or windy it might be!

Date:

Astronomy

Dec. 01, 2012 Rise Set
Actual Time 6:41 AM PST 4:44 PM PST
Civil Twilight 6:14 AM PST 5:11 PM PST
Nautical Twilight 5:43 AM PST 5:42 PM PST
Astronomical Twilight 5:13 AM PST 6:12 PM PST
Moon 7:36 PM PST (12/1) 8:59 AM PST (12/1)
Length of Visible Light 10h 57m
Length of Day
10h 02m
Waning Gibbous, 91% of the Moon is Illuminated
Dec 1
Waning Gibbous
Dec 6
Last Quarter
Dec 13
New
Dec 19
First Quarter
Dec 28
Full

Hourly Weather History & Observations

Time (PST) Temp. Dew Point Humidity Pressure Visibility Wind Dir Wind Speed Gust Speed Precip Events Conditions
12:51 AM 60.1 °F 57.0 °F 90% 30.14 in 10.0 mi Calm Calm - N/A   Overcast
1:51 AM 60.1 °F 57.0 °F 90% 30.15 in 10.0 mi Calm Calm - N/A   Overcast
2:51 AM 60.1 °F 57.0 °F 90% 30.14 in 10.0 mi Calm Calm - N/A   Mostly Cloudy
3:51 AM 60.1 °F 57.0 °F 90% 30.14 in 10.0 mi Calm Calm - N/A   Overcast
4:51 AM 60.1 °F 57.9 °F 93% 30.13 in 10.0 mi Calm Calm - N/A   Overcast
5:51 AM 60.1 °F 57.0 °F 90% 30.15 in 10.0 mi Calm Calm - N/A   Overcast
6:51 AM 60.1 °F 57.9 °F 93% 30.16 in 10.0 mi Calm Calm - 0.01 in   Overcast
7:38 AM 60.8 °F 57.2 °F 88% 30.17 in 3.0 mi Calm Calm - 0.00 in Rain Light Rain
7:41 AM 60.8 °F 57.2 °F 88% 30.16 in 3.0 mi Calm Calm - 0.00 in Rain Light Rain
7:51 AM 61.0 °F 57.9 °F 90% 30.17 in 2.5 mi Calm Calm - 0.00 in Rain Light Rain
8:05 AM 60.8 °F 57.2 °F 88% 30.17 in 7.0 mi Calm Calm - 0.00 in   Overcast
8:51 AM 62.1 °F 60.1 °F 93% 30.18 in 10.0 mi Calm Calm - 0.00 in   Overcast
9:51 AM 64.0 °F 60.1 °F 87% 30.19 in 10.0 mi Calm Calm - N/A   Mostly Cloudy
10:51 AM 64.9 °F 59.0 °F 81% 30.17 in 10.0 mi SSW 4.6 mph - N/A   Overcast
11:33 AM 62.6 °F 60.8 °F 94% 30.16 in 2.0 mi SW 3.5 mph - 0.00 in Rain Light Rain
11:51 AM 64.0 °F 61.0 °F 90% 30.15 in 7.0 mi South 5.8 mph - 0.00 in Rain Light Rain
12:51 PM 64.0 °F 60.1 °F 87% 30.13 in 10.0 mi SSW 9.2 mph - 0.00 in   Overcast
1:51 PM 64.9 °F 59.0 °F 81% 30.12 in 10.0 mi SW 8.1 mph - N/A   Overcast
2:15 PM 64.4 °F 59.0 °F 83% 30.11 in 10.0 mi SW 6.9 mph - N/A   Overcast
2:51 PM 64.9 °F 59.0 °F 81% 30.10 in 10.0 mi SSW 8.1 mph - N/A   Overcast
3:51 PM 64.0 °F 59.0 °F 84% 30.10 in 10.0 mi WSW 4.6 mph - N/A   Overcast
4:51 PM 63.0 °F 60.1 °F 90% 30.09 in 9.0 mi SW 6.9 mph - 0.00 in Rain Light Rain
5:51 PM 63.0 °F 60.1 °F 90% 30.09 in 10.0 mi SW 4.6 mph - 0.00 in   Overcast
6:51 PM 62.1 °F 60.1 °F 93% 30.09 in 4.0 mi SSW 4.6 mph - 0.01 in Rain Light Rain
7:51 PM 62.1 °F 60.1 °F 93% 30.10 in 2.5 mi Calm Calm - 0.02 in Rain Light Rain
8:51 PM 62.1 °F 61.0 °F 96% 30.11 in 2.5 mi SW 5.8 mph - 0.05 in Rain Light Rain
8:58 PM 62.6 °F 60.8 °F 94% 30.11 in 3.0 mi SW 9.2 mph - 0.00 in Rain Light Rain
9:29 PM 62.6 °F 60.8 °F 94% 30.11 in 10.0 mi SW 5.8 mph - 0.00 in   Overcast
9:51 PM 62.1 °F 60.1 °F 93% 30.11 in 10.0 mi WSW 4.6 mph - 0.00 in   Overcast
11:51 PM 62.1 °F 59.0 °F 90% 30.12 in 10.0 mi Calm Calm - N/A   Overcast